User: anonymous   Login
Location: Bucknum
(43.0208°N, 106.6262°W)
Time: 13:22:51
(UTC+00:00)
Language:

COSMOS 1408 DEB - Orbit

View from above orbital plane
View from above orbital plane
View from above satellite
View from above satellite

Ground track
Ground track

The orbit data is extracted from the following two-line orbital elements,

1 50927U 82092AVW 22268.74011586  .00096570  00000-0  11944-2 0  9994
2 50927  82.6203 165.2313 0021579 275.7791  84.1005 15.59483814 40852
Epoch (UTC): 25 September 2022 17:45:46
Eccentricity: 0.0021579
inclination: 82.6203°
perigee height: 374 km
apogee height: 404 km
right ascension of ascending node: 165.2313°
argument of perigee: 275.7791°
revolutions per day: 15.59483814
mean anomaly at epoch: 84.1005°
orbit number at epoch: 4085

The dashed part of the orbit path shows where the satellite is in the earth's shadow,  

DLR